Regional Weather Roundup
Issued by NWS

Home | Current Version | Previous Version | Text Only | Print | Product List | Glossary Off
Versions: 1 2 3 4 5 6 7 8 9 10 11 12 13 14 15 16 17 18 19 20 21 22 23 24 25 26 27 28 29 30 31 32 33 34 35 36 37 38 39 40 41 42 43 44 45 46 47 48 49 50

222
ASUS45 KBOU 200807
RWRCO

WEATHER ROUNDUP FOR COLORADO
NATIONAL WEATHER SERVICE DENVER/BOULDER CO
100 AM MST FRI JAN 20 2017

NOTE: "FAIR" INDICATES FEW OR NO CLOUDS BELOW 12000 FEET WITH NO
SIGNIFICANT WEATHER AND/OR OBSTRUCTIONS TO VISIBILITY.

COZ001>005-013-030-031-200900-
...NORTHWEST COLORADO...

CITY           SKY/WX    TMP DP  RH WIND       PRES   REMARKS
CRAIG          LGT SNOW  28  25  88 CALM      29.60F FOG
HAYDEN         CLOUDY    25  21  86 E5        29.60F WCI  19
MEEKER         LGT SNOW  29  28  96 CALM      29.59F VSB 1
MOUNT WERNER   NOT AVBL
STEAMBOAT SPGS CLOUDY    22  21  96 CALM      29.60F
WALDEN           N/A     23  19  86 SE8       29.58F WCI  14
$$

COZ006>008-011-200900-
...WEST CENTRAL VALLEYS...

CITY           SKY/WX    TMP DP  RH WIND       PRES   REMARKS
GRAND JUNCTION CLOUDY    31  31 100 NW3       29.62F FOG
MONTROSE       CLOUDY    31  30  96 CALM      29.64F
EAGLE          LGT SNOW  26  25  96 CALM      29.64F FOG
RIFLE          LGT SNOW  30  30 100 CALM      29.62F FOG
DELTA          FOG       34  34  98 CALM      29.64F VSB 1/2
NUCLA          LGT SNOW  32  32 100 E5        29.65F WCI  27
$$

COZ017>023-064>068-200900-
...SOUTHWEST COLORADO...

CITY           SKY/WX    TMP DP  RH WIND       PRES   REMARKS
DURANGO        LGT SNOW  30  28  92 S6        29.66F FOG     WCI  24
CORTEZ         LGT SNOW  32  31  96 S24G33    29.68F FOG     WCI  19
PAGOSA SPRINGS LGT SNOW  29  29 100 CALM      29.66F VSB 1
TELLURIDE      LGT SNOW  26  24  91 CALM      29.62F
WOLF CREEK PAS CLOUDY    14  14 100 S14G22    29.65F WCI  -1
$$

COZ009-010-012-014-032>034-037-058>063-200900-
...CENTRAL COLORADO...

CITY           SKY/WX    TMP DP  RH WIND       PRES   REMARKS
ASPEN          LGT SNOW  25  24  96 CALM      29.58F FOG
BUENA VISTA    CLOUDY    24  22  91 CALM      29.58F
COPPER MTN     LGT SNOW  19  14  79 MISG      29.58F
BERTHOUD PASS  NOT AVBL
COTTONWOOD PAS CLOUDY    27  25  93 CALM      29.57F
GUNNISON       FLURRIES  14  11  87 CALM      29.66F
KREMMLING      LGT SNOW  19  16  86 CALM      29.64F
LEADVILLE      LGT SNOW  20  17  88 CALM      29.56F FOG
MONARCH PASS   CLOUDY    14  12  92 SW12G25   29.68F VSB<1/4 WCI   0
SALIDA         CLOUDY    32  20  62 S7        29.65F WCI  26
SUNLIGHT       LGT SNOW  18  16  93 SW8       29.62F WCI   7
WILKERSON PASS HVY SNOW  19  16  86 SW13G20   29.57F VSB 1/4 WCI   7
$$

COZ069>075-200900-
...SAN LUIS VALLEY/SANGRE DE CRISTO MOUNTAINS...

CITY           SKY/WX    TMP DP  RH WIND       PRES   REMARKS
ALAMOSA        MOCLDY    17  15  92 E5        29.64F WCI  10
LA VETA PASS   LGT SNOW  21  18  86 N24G41    29.55F VSB 3/4 WCI   4
SAGUACHE       CLOUDY    23  21  93 SE5       29.66F WCI  17
$$

COZ035-036-038>040-200900-
...NORTHERN COLORADO FRONT RANGE...

CITY           SKY/WX    TMP DP  RH WIND       PRES   REMARKS
DENVER INTL AP MOCLDY    34  20  56 CALM      29.47F
DMNS CITY PARK   N/A     33  22  65 NW2       29.48R
AURORA         PTCLDY    31  24  74 SW3       29.47F
FRONT RANGE AP FAIR      32  27  80 SE6       29.47F WCI  26
ERIE MUNI ARPT FAIR      28  24  87 CALM      29.48F
BOULDER MUN AP FAIR      34  23  64 N5        29.47F WCI  30
CENTENNIAL     FAIR      34  19  54 W3        29.47F
BROOMFIELD     FAIR      36  25  64 CALM      29.47F
FORT COLLINS   FAIR      30  21  69 CALM      29.48F
LONGMONT       FAIR      32  26  77 NW3       29.49F
$$

COZ041-046-047-076>085-087-088-200900-
...PIKES PEAK/PALMER DIVIDE AND SOUTHERN FOOTHILLS...

CITY           SKY/WX    TMP DP  RH WIND       PRES   REMARKS
COLO. SPRINGS  CLOUDY    35  19  52 SW6       29.48F WCI  30
A. F. ACADEMY  FAIR      40  23  50 W9G17     29.46F
SCHRIEVER AFB  NOT AVBL
ELLICOTT       FAIR     N/A N/A N/A CALM      29.46F
FALCON         FAIR      38  22  53 NW10      29.48S
FORT CARSON    CLOUDY    37  19  48 SW3       29.48F
LIMON          FAIR      24  22  91 W6        29.47F WCI  17
MONUMENT HILL  FAIR      30  21  69 W6        29.49F WCI  24
TRINIDAD       LGT RAIN  42  28  57 W22       29.50S
$$

COZ042>045-048>051-090-091-200900-
...NORTHEAST COLORADO...

CITY           SKY/WX    TMP DP  RH WIND       PRES   REMARKS
GREELEY ARPT   FAIR      26  24  92 NW5       29.49F WCI  20
AKRON          FAIR      34  22  61 E6        29.48S WCI  29
BURLINGTON     FAIR      27  25  92 W7        29.47F WCI  19
WRAY           NOT AVBL
STERLING       FAIR      25  23  93 S5        29.49S WCI  19
HOLYOKE        FAIR      21  19  93 W6        29.47F WCI  14
FORT MORGAN    FAIR      30  24  77 CALM      29.48F
$$

COZ086-089-092>099-200900-
...SOUTHEAST COLORADO...

CITY           SKY/WX    TMP DP  RH WIND       PRES   REMARKS
PUEBLO         MOCLDY    46  29  51 W14G23    29.45F
LA JUNTA       FAIR      28  25  88 NW5       29.49S WCI  23
LAMAR          FOG       29  27  92 SE5       29.49R VSB 1/4 WCI  24
SPRINGFIELD      N/A     34  31  88 CALM      29.48R
$$




USA.gov is the U.S. government's official web portal to all federal, state and local government web resources and services.